GW6267 Weather Reports


time (UTC)temp
C
wind
direction
speed
KPH
gust
KPH
rain 1hr
cm
rain 24hr
cm
rain mn
cm
humidity
%
barometer
mb
20260505003003 13 95 6.4 14.5 0.00 0.00 0.00 75 1027.1
20260505002003 13 95 4.8 12.9 0.00 0.00 0.00 76 1027.0
20260505001003 13 104 6.4 14.5 0.00 0.00 0.00 77 1026.9
20260505000003 12 106 4.8 17.7 0.00 0.00 0.00 79 1026.7
20260504235024 12 103 3.2 8.0 0.00 0.00 0.00 80 1026.7
20260504234003 12 125 4.8 9.7 0.00 0.00 0.00 81 1026.5
20260504233003 12 112 4.8 11.3 0.00 0.00 0.00 81 1026.4
20260504232003 11 137 3.2 8.0 0.00 0.00 0.00 82 1026.2
20260504231003 11 142 3.2 6.4 0.00 0.00 0.00 83 1026.2
20260504230003 11 131 3.2 8.0 0.00 0.00 0.00 84 1026.0
20260504225003 11 135 3.2 8.0 0.00 0.00 0.00 84 1025.9
20260504224003 11 136 3.2 8.0 0.00 0.00 0.00 84 1025.8
20260504223003 11 132 1.6 6.4 0.00 0.00 0.00 84 1025.6
20260504222003 11 136 3.2 8.0 0.00 0.00 0.00 83 1025.5
20260504221003 11 131 3.2 14.5 0.00 0.00 0.00 83 1025.4
20260504220024 11 127 3.2 9.7 0.00 0.00 0.00 82 1025.4
20260504215024 11 117 4.8 11.3 0.00 0.00 0.00 82 1025.3
20260504214003 11 125 4.8 12.9 0.00 0.00 0.00 82 1025.3
20260504213003 11 123 4.8 9.7 0.00 0.00 0.00 81 1025.3
20260504212003 12 127 4.8 9.7 0.00 0.00 0.00 81 1025.3
20260504211003 12 130 6.4 11.3 0.00 0.00 0.00 81 1025.3
20260504210004 12 142 4.8 12.9 0.00 0.00 0.00 81 1025.3
20260504205003 12 136 3.2 8.0 0.00 0.00 0.00 81 1025.2
20260504204003 12 141 4.8 8.0 0.00 0.00 0.00 81 1025.3
20260504203003 12 147 4.8 11.3 0.00 0.00 0.00 80 1025.3
20260504202003 12 148 4.8 11.3 0.00 0.00 0.00 80 1025.3
20260504201003 12 145 4.8 11.3 0.00 0.00 0.00 79 1025.3
20260504200003 12 139 6.4 14.5 0.00 0.00 0.00 78 1025.3
20260504195003 12 147 6.4 14.5 0.00 0.00 0.00 79 1025.3
20260504194004 12 144 4.8 12.9 0.00 0.00 0.00 79 1025.3
20260504193004 12 140 6.4 12.9 0.00 0.00 0.00 79 1025.3
20260504192004 12 135 6.4 11.3 0.00 0.00 0.00 79 1025.3
20260504191004 12 143 6.4 12.9 0.00 0.00 0.00 79 1025.4
20260504190004 12 146 6.4 11.3 0.00 0.00 0.00 79 1025.5
20260504185025 12 147 6.4 11.3 0.00 0.00 0.00 78 1025.5
20260504184004 12 139 6.4 14.5 0.00 0.00 0.00 78 1025.6
20260504183004 12 147 8.0 14.5 0.00 0.00 0.00 78 1025.6
20260504182004 12 148 8.0 14.5 0.00 0.00 0.00 78 1025.7
20260504181025 12 147 6.4 12.9 0.00 0.00 0.00 78 1025.8
20260504180025 13 150 6.4 12.9 0.00 0.00 0.00 77 1025.9
20260504175004 13 150 4.8 9.7 0.00 0.00 0.00 77 1025.9
20260504174004 13 146 4.8 11.3 0.00 0.00 0.00 77 1025.8
20260504173004 13 147 6.4 11.3 0.00 0.00 0.00 77 1025.8
20260504172025 13 147 6.4 9.7 0.00 0.00 0.00 77 1025.9
20260504171004 13 147 4.8 8.0 0.00 0.00 0.00 78 1026.0
20260504151004 14 146 3.2 6.4 0.00 0.00 0.00 73 1026.3
20260504141004 15 127 6.4 11.3 0.00 0.00 0.00 72 1026.3
20260504081004 21 226 3.2 9.7 0.00 0.00 0.00 59 1025.0
20260504050004 21 150 4.8 14.5 0.00 0.00 0.00 54 1026.1
20260504045004 20 142 6.4 14.5 0.00 0.00 0.00 54 1026.2
20260504044003 20 141 4.8 14.5 0.00 0.00 0.00 56 1026.3
20260504043004 20 139 6.4 12.9 0.00 0.00 0.00 56 1026.5
20260504042004 20 136 4.8 16.1 0.00 0.00 0.00 56 1026.7
20260504041004 20 104 6.4 17.7 0.00 0.00 0.00 57 1026.9
20260504040004 20 116 6.4 16.1 0.00 0.00 0.00 58 1027.1
20260504035003 20 77 4.8 12.9 0.00 0.00 0.00 57 1027.3
20260504034004 19 78 6.4 14.5 0.00 0.00 0.00 59 1027.5
20260504033004 18 127 9.7 17.7 0.00 0.00 0.00 61 1027.6
20260504032004 18 135 8.0 14.5 0.00 0.00 0.00 62 1027.6
20260504031004 18 114 8.0 16.1 0.00 0.00 0.00 62 1027.7
20260504030004 18 111 8.0 17.7 0.00 0.00 0.00 63 1027.8
20260504025004 18 118 8.0 14.5 0.00 0.00 0.00 64 1027.9
20260504024025 17 106 9.7 19.3 0.00 0.00 0.00 65 1028.1
20260504023025 17 105 9.7 20.9 0.00 0.00 0.00 64 1028.2
20260504022003 17 91 8.0 17.7 0.00 0.00 0.00 67 1028.3
20260504021004 17 87 9.7 19.3 0.00 0.00 0.00 68 1028.3
20260504020025 16 89 8.0 19.3 0.00 0.00 0.00 69 1028.3
20260504015003 16 84 11.3 19.3 0.00 0.00 0.00 70 1028.4
20260504014004 16 86 9.7 20.9 0.00 0.00 0.00 71 1028.3
20260504013004 16 85 8.0 17.7 0.00 0.00 0.00 72 1028.3
20260504012025 15 98 8.0 17.7 0.00 0.00 0.00 74 1028.3
20260504011003 15 98 8.0 19.3 0.00 0.00 0.00 76 1028.3
20260504010024 14 99 8.0 19.3 0.00 0.00 0.00 77 1028.4
20260504005004 13 106 8.0 17.7 0.00 0.00 0.00 78 1028.3
20260504004003 13 108 6.4 14.5 0.00 0.00 0.00 79 1028.4